Flag for West Bank Weather past 2 weeks in Tulkarm, West Bank

Now
66 °F

Passing clouds.


Feels Like: 66 °F
Forecast: 53 / 66 °F
Wind: 18 mph from West

Location: Dov Airport

Current Time: Dec 22, 2014 at 11:31:16 PM

Latest Report: Dec 22, 2014 at 10:50 PM


Visibility: N/A

Pressure: 30.01 "Hg

Humidity: 52%

Dew point: 48 °F

Location of TulkarmLocation

Historic Weather in Tulkarm — Graph

°F

Tulkarm temperature yesterday

Maximum temperature yesterday: 66 °F (at 12:50 PM)
Minimum temperature yesterday: 55 °F (at 5:50 AM)
Average temperature yesterday: 62 °F

Past Weeks' High & Low Weather Summary

 TemperatureHumidityPressure
High81 °F (Dec 11, 1:50 PM)88% (Dec 14, 5:50 AM)30.21 "Hg (Dec 14, 5:50 AM)
Low55 °F (Dec 15, 5:00 AM)32% (Dec 13, 10:50 AM)29.74 "Hg (Dec 9, 5:50 AM)
Average65 °F66%30.04 "Hg
* Reported Dec 7 9:50 PM — Dec 22 9:50 PM, Tulkarm, Weather by CustomWeather, © 2014

Note: Actual official high and low records may vary slightly from our data, if they occured in-between our weather recording intervals... More about our weather records

Advertising

Tulkarm weather history for previous 24 hours

 ConditionsComfort  
Time TempWeatherWind HumidityBarometerVisibility
9:50 PM
Dec 22
66 °FPassing clouds.17 mph52%30.01 "HgN/A
8:50 PM66 °FPassing clouds.20 mph60%30.01 "HgN/A
7:50 PM64 °FPassing clouds.9 mph78%30.01 "HgN/A
6:50 PM61 °FPassing clouds.12 mph83%30.01 "HgN/A
6:00 PM61 °FThundershowers. Overcast.7 mph83%29.98 "HgN/A
4:50 PM63 °FRain. Passing clouds.24 mph73%29.98 "HgN/A
3:50 PM64 °FScattered clouds.20 mph68%29.98 "HgN/A
2:50 PM66 °FPartly sunny.22 mph60%29.98 "HgN/A
1:55 PM63 °FRain showers. Scattered clouds.22 mph73%30.01 "Hg4 mi
12:50 PM64 °FScattered clouds.16 mph64%30.01 "HgN/A
11:50 AM64 °FScattered clouds.10 mph68%30.04 "HgN/A
10:50 AM64 °FBroken clouds.9 mph64%30.07 "HgN/A
9:50 AM63 °FScattered clouds.8 mph68%30.07 "HgN/A
8:50 AM63 °FScattered clouds.8 mph68%30.07 "HgN/A
7:50 AM59 °FPassing clouds.7 mph72%30.07 "HgN/A
6:50 AM57 °FPassing clouds.7 mph72%30.07 "HgN/A
5:50 AM57 °FPassing clouds.6 mph77%30.07 "HgN/A
Weather by CustomWeather, © 2014

See weather overviewHow to use our weather pages